[[{"header":{"parameterUnit":"m.s-1","parameterCategory":1,"la1":30.2991,"la2":30.254,"lo1":-89.0895,"lo2":-89.0444,"dy":0.0017,"dx":0.0017,"nx":28,"ny":28,"refTime":"2023-08-23T21:00:00:Z","depth":0,"parameterNumber":2,"parameterNumberName":"U-component_of_WINDS"},"data":[0,0,0,0,0,0,0,0,0,0,0,0,0,0,0,0,0,0,0,0,0,0,0,0,0,0,0,0,0,0,0,0,0,0,0,0,0,0,0,0,0,0,0,0,0,0,0,0,0,0,0,0,0,0,0,0,0,0,-1.8288,-1.8287,0,-1.8263,-1.8262,-1.8262,-1.8223,-1.8222,-1.8221,-1.8221,-1.8196,-1.8196,-1.8196,0,0,0,0,0,0,0,0,0,0,0,0,0,-1.8304,-1.8304,-1.8288,-1.8287,-1.8287,-1.8263,-1.8262,-1.8262,-1.8223,-1.8222,-1.8221,-1.822,-1.8196,-1.8196,-1.8196,0,0,0,0,0,0,0,0,0,0,0,0,0,-1.829,-1.8304,-1.8288,-1.8265,-1.8262,-1.8263,-1.8262,-1.8262,-1.8223,-1.8222,-1.8221,-1.822,-1.8196,-1.8196,-1.8196,-1.8218,0,0,-1.8196,-1.8196,0,0,0,0,0,0,0,0,-1.8291,-1.8289,-1.8268,-1.8266,-1.8263,-1.8245,-1.8259,-1.8247,-1.8223,-1.8238,-1.8221,-1.8219,-1.8213,-1.8212,-1.8209,-1.8216,-1.8215,-1.8196,-1.8196,-1.8196,-1.8196,0,0,0,0,0,0,0,-1.8292,-1.829,-1.8278,-1.8268,-1.8265,-1.8256,-1.8253,-1.8257,-1.8232,-1.8237,-1.8234,-1.8231,-1.8212,-1.821,-1.8209,-1.8215,-1.8196,-1.8196,-1.8196,-1.8196,-1.8241,-1.8242,0,0,0,0,0,0,-1.8296,-1.8291,-1.8279,-1.8277,-1.8275,-1.8257,-1.8253,-1.8252,-1.8232,-1.8228,-1.8232,-1.823,-1.821,-1.8209,-1.8208,-1.8232,-1.8196,-1.8196,-1.8196,-1.824,-1.8241,-1.8242,0,0,0,0,0,0,-1.8296,-1.8295,-1.828,-1.8283,-1.8281,-1.8258,-1.8256,-1.8252,-1.825,-1.8228,-1.8224,-1.8234,-1.8209,-1.8208,-1.8216,-1.8231,-1.8196,-1.8196,-1.8238,-1.824,-1.8242,-1.8282,0,0,0,0,0,0,-1.8297,-1.8295,-1.8302,-1.8284,-1.8281,-1.8287,-1.8257,-1.8252,-1.825,-1.8246,-1.8229,-1.8225,-1.8208,-1.8216,-1.8216,-1.823,-1.8196,-1.8237,-1.8239,-1.8241,-1.8279,-1.8284,-1.8289,0,0,0,0,0,-1.8298,-1.8314,-1.8303,-1.8302,-1.8289,-1.8288,-1.8287,-1.8266,-1.8251,-1.8258,-1.8245,-1.8226,-1.823,-1.8217,-1.8217,-1.8231,-1.8236,-1.8238,-1.8241,-1.8276,-1.8283,-1.8289,0,0,0,0,0,0,-1.8335,-1.8311,-1.8298,-1.831,-1.8301,-1.8282,-1.829,-1.8274,-1.827,-1.8266,-1.8242,-1.8238,-1.825,-1.8242,-1.8228,-1.8252,-1.823,-1.8232,-1.8257,-1.8263,-1.8269,-1.827,-1.8196,0,0,0,0,0,-1.8345,-1.8346,-1.8325,-1.8337,-1.8334,-1.8313,-1.8312,-1.8297,-1.8288,-1.8284,-1.8271,-1.8263,-1.8263,-1.8263,-1.8261,-1.8278,-1.8274,-1.8288,-1.8293,-1.8298,-1.83,-1.831,-1.8316,-1.8251,-1.8251,-1.8251,0,0,-1.8365,-1.8352,-1.8354,-1.8345,-1.8336,-1.8339,-1.831,-1.8314,-1.8315,-1.8285,-1.8291,-1.8282,-1.8272,-1.8285,-1.829,-1.8278,-1.8318,-1.8301,-1.8305,-1.8305,-1.8314,-1.832,-1.8325,-1.8253,-1.8252,-1.8252,0,0,-1.8402,-1.8392,-1.8402,-1.8395,-1.8383,-1.8369,-1.8372,-1.8355,-1.8348,-1.8355,-1.8332,-1.8335,-1.8334,-1.8328,-1.8325,-1.8363,-1.8345,-1.8363,-1.839,-1.84,-1.8406,-1.841,-1.8424,-1.843,-1.8366,-1.8366,-1.8366,0,-1.8428,-1.843,-1.8409,-1.8414,-1.8411,-1.8384,-1.8395,-1.8389,-1.8377,-1.8376,-1.8363,-1.8363,-1.8354,-1.8366,-1.8376,-1.8374,-1.8377,-1.8364,-1.8407,-1.8411,-1.8415,-1.8428,-1.8434,-1.8368,-1.8368,-1.8368,-1.8367,0,-1.8464,-1.8466,-1.8475,-1.8465,-1.8463,-1.8471,-1.8452,-1.8453,-1.8439,-1.8428,-1.8436,-1.8425,-1.8421,-1.8423,-1.8409,-1.8434,-1.8427,-1.8411,-1.8388,-1.8424,-1.8436,-1.8441,-1.8371,-1.8371,-1.837,-1.8369,0,0,-1.8522,-1.8502,-1.8506,-1.8501,-1.8488,-1.8489,-1.8497,-1.8493,-1.8495,-1.8489,-1.8495,-1.8497,-1.8482,-1.8479,-1.8464,-1.8473,-1.8506,-1.8456,-1.8455,-1.8466,-1.8534,-1.8546,-1.8552,-1.8495,-1.8495,-1.8496,-1.8535,0,-1.8557,-1.8568,-1.855,-1.8565,-1.8568,-1.8543,-1.855,-1.8543,-1.8533,-1.8535,-1.8524,-1.8525,-1.8505,-1.8504,-1.8511,-1.85,-1.8519,-1.8497,-1.8501,-1.8501,-1.8504,-1.8558,-1.8571,-1.8607,-1.8539,-1.854,-1.8541,0,-1.8598,-1.8595,-1.861,-1.8597,-1.8598,-1.8604,-1.86,-1.8602,-1.8594,-1.8586,-1.8584,-1.8567,-1.8575,-1.8554,-1.8565,-1.8551,-1.8552,-1.8547,-1.8548,-1.8547,-1.8523,-1.8559,-1.8618,-1.8624,-1.8548,-1.8547,-1.8547,0,-1.864,-1.8639,-1.8649,-1.8646,-1.8631,-1.8636,-1.863,-1.8621,-1.8621,-1.8619,-1.8618,-1.8617,-1.8616,-1.8616,-1.86,-1.8585,-1.8614,-1.859,-1.8608,-1.8609,-1.8614,-1.8614,-1.8675,-1.8615,-1.8615,-1.8615,-1.8615,0,-1.8681,-1.8691,-1.8668,-1.8674,-1.8686,-1.8666,-1.8678,-1.867,-1.8663,-1.8668,-1.8647,-1.8652,-1.8631,-1.8635,-1.8623,-1.8634,-1.8634,-1.8629,-1.8625,-1.863,-1.8631,-1.863,-1.8627,-1.8617,-1.8616,-1.8616,-1.8616,0,-1.8729,-1.8713,-1.8722,-1.8708,-1.8705,-1.8714,-1.8702,-1.8708,-1.8698,-1.8704,-1.8704,-1.8688,-1.8691,-1.8676,-1.8676,-1.8668,-1.8686,-1.8678,-1.8689,-1.8686,-1.8705,-1.8704,-1.8767,-1.8775,-1.871,-1.8711,-1.8712,0,-1.8756,-1.8763,-1.875,-1.8752,-1.8747,-1.875,-1.875,-1.8732,-1.8732,-1.8726,-1.8733,-1.8734,-1.8734,-1.874,-1.8729,-1.873,-1.8722,-1.8744,-1.8722,-1.8728,-1.8723,-1.8723,-1.8724,-1.8749,-1.875,-1.875,-1.8751,0,-1.8805,-1.8798,-1.8798,-1.8796,-1.8797,-1.8794,-1.8791,-1.8794,-1.8774,-1.8776,-1.8779,-1.878,-1.8781,-1.8783,-1.8781,-1.8776,-1.8761,-1.8758,-1.8762,-1.8768,-1.8773,-1.8771,-1.8701,-1.8757,-1.8756,-1.8756,-1.8755,-1.8755,-1.8844,-1.885,-1.8842,-1.8844,-1.8839,-1.8837,-1.8842,-1.8833,-1.8835,-1.8834,-1.8823,-1.8829,-1.8823,-1.882,-1.8816,-1.8821,-1.8811,-1.8817,-1.8818,-1.882,-1.8824,-1.8773,-1.8821,-1.8821,-1.8821,-1.882,-1.882,0,-1.8892,-1.8887,-1.8888,-1.8884,-1.8886,-1.8872,-1.8868,-1.887,-1.8875,-1.8871,-1.8872,-1.8876,-1.8879,-1.8869,-1.887,-1.8876,-1.8869,-1.8877,-1.8876,-1.8876,-1.8832,-1.8829,-1.8883,-1.8883,-1.8883,-1.8883,-1.8883,-1.8883,-1.8918,-1.8928,-1.892,-1.8929,-1.8923,-1.8928,-1.8927,-1.8926,-1.8922,-1.8928,-1.893,-1.8924,-1.8917,-1.8919,-1.8921,-1.8918,-1.892,-1.893,-1.8925,-1.8885,-1.8879,-1.8873,-1.8869,-1.8931,-1.8931,-1.8968,-1.8968,-1.8969]},{"header":{"parameterUnit":"m.s-1","parameterCategory":1,"la1":30.2991,"la2":30.254,"lo1":-89.0895,"lo2":-89.0444,"dy":0.0017,"dx":0.0017,"nx":28,"ny":28,"refTime":"2023-08-23T21:00:00:Z","depth":0,"parameterNumber":3,"parameterNumberName":"V-component_of_WINDS"},"data":[0,0,0,0,0,0,0,0,0,0,0,0,0,0,0,0,0,0,0,0,0,0,0,0,0,0,0,0,0,0,0,0,0,0,0,0,0,0,0,0,0,0,0,0,0,0,0,0,0,0,0,0,0,0,0,0,0,0,4.0848,4.0849,0,4.0885,4.0886,4.0886,4.0934,4.0935,4.0936,4.0936,4.0971,4.0971,4.0971,0,0,0,0,0,0,0,0,0,0,0,0,0,4.0816,4.0817,4.0848,4.0849,4.0849,4.0885,4.0886,4.0886,4.0934,4.0935,4.0936,4.0937,4.0971,4.0971,4.0971,0,0,0,0,0,0,0,0,0,0,0,0,0,4.0839,4.0817,4.0848,4.0877,4.088,4.0885,4.0886,4.0886,4.0934,4.0935,4.0936,4.0937,4.097,4.0971,4.0971,4.0949,0,0,4.0972,4.0972,0,0,0,0,0,0,0,0,4.0838,4.0841,4.0873,4.0875,4.0879,4.0906,4.0887,4.0907,4.0933,4.0913,4.0936,4.0938,4.0948,4.095,4.0954,4.0951,4.0952,4.0972,4.0972,4.0972,4.0972,0,0,0,0,0,0,0,4.0836,4.0839,4.0863,4.0873,4.0877,4.0888,4.0893,4.0891,4.0923,4.0915,4.0919,4.0923,4.095,4.0954,4.0956,4.0953,4.0972,4.0972,4.0972,4.0972,4.0933,4.0932,0,0,0,0,0,0,4.0831,4.0838,4.0862,4.0864,4.0861,4.0888,4.0893,4.0896,4.0924,4.0929,4.0922,4.0925,4.0953,4.0955,4.0957,4.0933,4.0972,4.0972,4.0972,4.0935,4.0933,4.0932,0,0,0,0,0,0,4.083,4.0833,4.086,4.0852,4.0856,4.0887,4.089,4.0896,4.0901,4.0929,4.0934,4.092,4.0954,4.0957,4.0951,4.0935,4.0972,4.0973,4.0936,4.0934,4.0932,4.0886,0,0,0,0,0,0,4.0829,4.0832,4.0824,4.0851,4.0857,4.0854,4.089,4.0896,4.0901,4.0906,4.0929,4.0934,4.0955,4.095,4.0951,4.0936,4.0973,4.0937,4.0935,4.0933,4.0889,4.0882,4.0877,0,0,0,0,0,4.0828,4.0809,4.0824,4.0826,4.0848,4.0853,4.0856,4.0882,4.09,4.0892,4.091,4.0933,4.0937,4.0949,4.0951,4.0936,4.0939,4.0936,4.0933,4.0891,4.0884,4.0877,0,0,0,0,0,0,4.0777,4.0813,4.083,4.0819,4.0833,4.0861,4.0852,4.0873,4.0881,4.0885,4.0916,4.0921,4.0912,4.0923,4.0936,4.0916,4.0941,4.0939,4.0909,4.0902,4.0896,4.0893,4.0973,0,0,0,0,0,4.0765,4.0768,4.0798,4.0786,4.0792,4.0821,4.0824,4.0844,4.0859,4.0864,4.0882,4.0895,4.0899,4.0901,4.0907,4.0891,4.0897,4.0881,4.0876,4.0871,4.0868,4.0861,4.0854,4.0923,4.0923,4.0923,0,0,4.0739,4.0759,4.0758,4.0776,4.0789,4.079,4.0825,4.0825,4.0826,4.0864,4.086,4.0874,4.089,4.088,4.0876,4.0889,4.085,4.0867,4.0863,4.0863,4.0857,4.0851,4.0845,4.0921,4.0922,4.0922,0,0,4.0693,4.0709,4.0701,4.0714,4.0734,4.0753,4.0751,4.0777,4.0788,4.0785,4.0814,4.0815,4.0822,4.0833,4.0839,4.0799,4.082,4.08,4.0769,4.0762,4.0757,4.0752,4.0737,4.0732,4.0798,4.0797,4.0797,0,4.0659,4.0663,4.0693,4.0692,4.0698,4.0735,4.0727,4.0737,4.0757,4.0761,4.0776,4.0786,4.08,4.0793,4.0783,4.0787,4.0785,4.0797,4.0755,4.0751,4.0747,4.0733,4.0728,4.0795,4.0795,4.0795,4.0796,0,4.0619,4.0621,4.0612,4.0632,4.0638,4.0633,4.0663,4.0665,4.0684,4.0702,4.0699,4.0717,4.0727,4.0727,4.0745,4.0722,4.073,4.075,4.0775,4.0737,4.0725,4.072,4.0791,4.0792,4.0793,4.0793,0,0,4.054,4.0579,4.0575,4.0586,4.0611,4.0613,4.061,4.0621,4.0623,4.0636,4.0633,4.0639,4.0658,4.0665,4.0685,4.0679,4.0646,4.0699,4.07,4.0688,4.0622,4.0607,4.06,4.0661,4.066,4.0659,4.0621,0,4.0498,4.0496,4.0524,4.0514,4.0516,4.0552,4.0549,4.0564,4.0581,4.0585,4.0604,4.0608,4.0632,4.0637,4.0632,4.0651,4.0633,4.0654,4.0658,4.0658,4.0652,4.0594,4.0577,4.054,4.0616,4.0615,4.0615,0,4.0449,4.0461,4.0451,4.0479,4.0481,4.0478,4.0491,4.0495,4.0513,4.0526,4.0535,4.0558,4.0557,4.0582,4.0579,4.0593,4.0597,4.0606,4.0605,4.0606,4.0633,4.0592,4.0529,4.0523,4.0608,4.0608,4.0609,0,4.0392,4.0406,4.0403,4.041,4.0442,4.0439,4.0452,4.0471,4.0477,4.0488,4.0492,4.0503,4.0508,4.0516,4.0541,4.0557,4.0536,4.0563,4.0545,4.0545,4.0538,4.0538,4.0474,4.0541,4.0541,4.0542,4.0542,0,4.0342,4.0335,4.0378,4.0375,4.0368,4.0401,4.0392,4.0409,4.0426,4.0427,4.0458,4.0458,4.0492,4.0496,4.0515,4.051,4.0513,4.0522,4.0528,4.0519,4.0518,4.0521,4.0524,4.054,4.054,4.0541,4.0541,0,4.0277,4.0306,4.0304,4.0335,4.0343,4.0336,4.0362,4.0361,4.0381,4.0382,4.0384,4.0414,4.042,4.0447,4.0458,4.0472,4.046,4.0471,4.0454,4.0457,4.0438,4.044,4.0373,4.0366,4.0438,4.0438,4.0437,0,4.0243,4.0238,4.027,4.0273,4.0286,4.0291,4.0297,4.0329,4.0335,4.0356,4.0351,4.036,4.0369,4.0377,4.0399,4.0409,4.042,4.0396,4.0421,4.0413,4.0419,4.0419,4.0418,4.039,4.0389,4.0388,4.0387,0,4.0179,4.0194,4.0203,4.0217,4.0224,4.0236,4.025,4.0251,4.0287,4.0291,4.0298,4.0305,4.0319,4.0327,4.034,4.0353,4.0375,4.038,4.0376,4.0367,4.0357,4.0362,4.0439,4.0381,4.0381,4.0382,4.0382,4.0382,4.0128,4.0126,4.0149,4.0158,4.0172,4.0184,4.0185,4.0206,4.0213,4.0227,4.0246,4.0251,4.027,4.029,4.0301,4.0305,4.0318,4.0313,4.0311,4.0309,4.0305,4.0358,4.0307,4.0308,4.0308,4.0308,4.0308,0,4.0066,4.0083,4.0091,4.011,4.0117,4.0141,4.0158,4.0161,4.0166,4.0182,4.0191,4.02,4.0208,4.0232,4.0243,4.0241,4.0252,4.0243,4.0243,4.0245,4.0293,4.0295,4.0234,4.0234,4.0234,4.0234,4.0234,4.0234,4.0035,4.0033,4.005,4.0056,4.0072,4.0079,4.0086,4.0098,4.0111,4.012,4.0128,4.0144,4.0164,4.0176,4.0185,4.0192,4.0194,4.0181,4.0191,4.0235,4.0242,4.0249,4.0251,4.0181,4.0181,4.0143,4.0143,4.0143]}]]